Home > Time Zones > World Clock > Weather > France > Caen > Past weeks

Flag for France Weather past 2 weeks in Caen, France

Now
64 °F

Partly sunny.


Feels Like: 64 °F
Forecast: 50 / 64 °F
Wind: 3 mph from North

Location: Caen Airport

Current Time: May 27, 2015 at 12:16:37 PM

Latest Report: May 27, 2015 at 12:00 PM


Visibility: N/A

Pressure: 30.30 "Hg

Humidity: 56%

Dew point: 48 °F

Location of CaenLocation

Historic Weather in Caen — Graph

°F

Caen temperature yesterday

Maximum temperature yesterday: 63 °F (at 2:00 PM)
Minimum temperature yesterday: 48 °F (at 6:00 AM)
Average temperature yesterday: 56 °F

Past Weeks' High & Low Weather Summary

 TemperatureHumidityPressure
High68 °F (May 24, 2:00 PM)100% (May 15, 7:00 AM)30.42 "Hg (May 15, 7:00 AM)
Low39 °F (May 18, 6:30 AM)48% (May 13, 11:00 AM)29.80 "Hg (May 14, 10:30 AM)
Average53 °F80%30.15 "Hg
* Reported May 12 11:00 AM — May 27 11:00 AM, Caen, Weather by CustomWeather, © 2015

Note: Actual official high and low records may vary slightly from our data, if they occured in-between our weather recording intervals... More about our weather records

Advertising

Caen weather history for previous 24 hours

 ConditionsComfort  
Time TempWeatherWind HumidityBarometerVisibility
11:00 AM
Wed, May 27
63 °FPassing clouds.3 mph59%30.30 "HgN/A
10:30 AM61 °FPassing clouds.3 mph68%30.30 "HgN/A
10:00 AM59 °FPassing clouds.5 mph72%30.30 "HgN/A
9:30 AM57 °FClear.6 mph82%30.30 "Hg6 mi
9:00 AM55 °FClear.6 mph88%30.30 "Hg5 mi
8:30 AM54 °FClear.6 mph94%30.30 "Hg4 mi
8:00 AM52 °FClear.6 mph94%30.30 "Hg4 mi
7:30 AM50 °FFog.5 mph94%30.30 "Hg3 mi
7:00 AM46 °FFog.6 mph100%30.30 "Hg3 mi
6:30 AM45 °FPassing clouds.7 mph93%30.30 "Hg4 mi
5:30 AM45 °FFog.5 mph93%30.30 "Hg3 mi
5:00 AM45 °FClear.6 mph100%30.30 "Hg4 mi
4:30 AM45 °FClear.5 mph93%30.30 "Hg4 mi
4:00 AM45 °FClear.3 mph93%30.30 "Hg4 mi
3:30 AM45 °FClear.6 mph100%30.30 "Hg4 mi
3:00 AM45 °FClear.2 mph100%30.30 "Hg4 mi
2:30 AM45 °FClear.6 mph100%30.30 "Hg6 mi
2:00 AM46 °FClear.6 mph93%30.30 "Hg6 mi
1:30 AM46 °FClear.5 mph100%30.30 "Hg10 mi
1:00 AM48 °FClear.3 mph94%30.33 "Hg10 mi
12:30 AM46 °FClear.3 mph93%30.33 "Hg10 mi
12:00 AM48 °FClear.3 mph94%30.30 "Hg10 mi
11:30 PM
Tue, May 26
50 °FClear.3 mph88%30.30 "Hg10 mi
11:00 PM50 °FClear.3 mph94%30.30 "Hg10 mi
10:30 PM52 °FSunny.2 mph88%30.30 "Hg10 mi
10:00 PM54 °FSunny.3 mph88%30.30 "Hg10 mi
9:30 PM55 °FSunny.6 mph82%30.30 "Hg10 mi
9:00 PM57 °FPassing clouds.7 mph77%30.30 "HgN/A
8:30 PM59 °FPassing clouds.7 mph72%30.30 "HgN/A
8:00 PM59 °FSunny.12 mph72%30.27 "Hg10 mi
7:30 PM61 °FPassing clouds.12 mph63%30.27 "HgN/A
7:00 PM61 °FPassing clouds.13 mph63%30.27 "HgN/A
6:30 PM63 °FPartly sunny.10 mph56%30.27 "HgN/A
6:00 PM63 °FOvercast.10 mph59%30.27 "HgN/A
5:30 PM63 °FOvercast.10 mph56%30.27 "HgN/A
5:00 PM63 °FOvercast.12 mph56%30.27 "HgN/A
4:30 PM63 °FPassing clouds.12 mph56%30.27 "HgN/A
4:00 PM63 °FMore clouds than sun.9 mph52%30.27 "HgN/A
3:30 PM63 °FMore clouds than sun.8 mph56%30.27 "HgN/A
3:00 PM63 °FOvercast.9 mph56%30.27 "HgN/A
2:30 PM63 °FMostly cloudy.7 mph56%30.27 "HgN/A
2:00 PM63 °FBroken clouds.7 mph56%30.27 "HgN/A
1:30 PM61 °FPartly sunny.7 mph59%30.27 "HgN/A
1:00 PM61 °FMore clouds than sun.7 mph59%30.27 "HgN/A
12:30 PM61 °FOvercast.8 mph55%30.24 "HgN/A
Weather by CustomWeather, © 2015

See weather overviewHow to use our weather pages